EZY52LD EGKK-LEIB

Flight info

Callsign EZY52LD
Flight time N/A
Altitude 35000
Route SFD Y47 DRAKE L151 SITET UN859 SOPIL DCT BALAN DCT EVPOK DCT NARAK DCT GAI DCT LOMRA DCT ROCAN/N0413F310 DCT PUMAL DCT XEPLA DCT BCN DCT CORDA
Aircraft A320/M-SDE3FGHIRWY/LB1

Departure

Time 2026-05-08 05:11
Airport London Gatwick Airport (EGKK)

Arrival

Time N/A
Airport Ibiza Airport (LEIB)
Time Latitude Longitude Altitude Speed Heading
2026-05-08 04:35 51.16041 -0.16960 204 ft 0 kts 333°
2026-05-08 04:52 51.16039 -0.16958 204 ft 3 kts 333°
2026-05-08 04:53 51.16015 -0.16939 213 ft 4 kts 333°
2026-05-08 04:53 51.15996 -0.16923 216 ft 4 kts 330°
2026-05-08 04:53 51.15979 -0.16897 209 ft 4 kts 283°
2026-05-08 04:53 51.15977 -0.16860 213 ft 4 kts 270°
2026-05-08 04:54 51.15977 -0.16850 212 ft 0 kts 270°
2026-05-08 04:58 51.15977 -0.16875 215 ft 5 kts 270°
2026-05-08 04:58 51.15960 -0.16954 211 ft 10 kts 241°
2026-05-08 04:59 51.15915 -0.17035 208 ft 9 kts 218°
2026-05-08 04:59 51.15861 -0.17075 207 ft 8 kts 191°
2026-05-08 04:59 51.15816 -0.17112 210 ft 7 kts 233°
2026-05-08 04:59 51.15806 -0.17180 212 ft 6 kts 260°
2026-05-08 05:00 51.15796 -0.17257 212 ft 8 kts 256°
2026-05-08 05:00 51.15782 -0.17353 204 ft 10 kts 258°
2026-05-08 05:00 51.15763 -0.17468 209 ft 12 kts 243°
2026-05-08 05:00 51.15688 -0.17487 204 ft 13 kts 168°
2026-05-08 05:01 51.15596 -0.17456 204 ft 14 kts 168°
2026-05-08 05:01 51.15492 -0.17420 208 ft 16 kts 168°
2026-05-08 05:01 51.15377 -0.17379 214 ft 18 kts 168°
2026-05-08 05:01 51.15302 -0.17429 206 ft 13 kts 252°
2026-05-08 05:02 51.15282 -0.17582 206 ft 15 kts 257°
2026-05-08 05:02 51.15259 -0.17753 210 ft 16 kts 258°
2026-05-08 05:02 51.15233 -0.17940 208 ft 18 kts 258°
2026-05-08 05:02 51.15205 -0.18146 204 ft 20 kts 258°
2026-05-08 05:03 51.15180 -0.18369 203 ft 21 kts 262°
2026-05-08 05:03 51.15148 -0.18605 203 ft 22 kts 257°
2026-05-08 05:03 51.15114 -0.18847 215 ft 22 kts 257°
2026-05-08 05:03 51.15082 -0.19086 214 ft 22 kts 258°
2026-05-08 05:04 51.15049 -0.19322 206 ft 22 kts 258°
2026-05-08 05:04 51.15017 -0.19553 210 ft 21 kts 258°
2026-05-08 05:04 51.14987 -0.19784 204 ft 22 kts 258°
2026-05-08 05:04 51.14951 -0.20029 206 ft 24 kts 257°
2026-05-08 05:05 51.14914 -0.20289 213 ft 25 kts 256°
2026-05-08 05:05 51.14877 -0.20566 205 ft 26 kts 258°
2026-05-08 05:05 51.14838 -0.20855 208 ft 27 kts 257°
2026-05-08 05:05 51.14807 -0.21082 210 ft 12 kts 257°
2026-05-08 05:06 51.14782 -0.21197 207 ft 10 kts 248°
2026-05-08 05:06 51.14767 -0.21300 212 ft 9 kts 259°
2026-05-08 05:06 51.14749 -0.21384 211 ft 7 kts 230°
2026-05-08 05:06 51.14707 -0.21400 207 ft 6 kts 174°
2026-05-08 05:07 51.14679 -0.21383 211 ft 0 kts 149°
2026-05-08 05:07 51.14667 -0.21369 212 ft 5 kts 141°
2026-05-08 05:07 51.14622 -0.21327 207 ft 6 kts 170°
2026-05-08 05:08 51.14618 -0.21326 206 ft 0 kts 170°
2026-05-08 05:08 51.14617 -0.21326 204 ft 1 kts 170°
2026-05-08 05:09 51.14606 -0.21323 214 ft 4 kts 170°
2026-05-08 05:09 51.14561 -0.21299 205 ft 10 kts 147°
2026-05-08 05:09 51.14516 -0.21189 207 ft 9 kts 94°
2026-05-08 05:09 51.14519 -0.21170 212 ft 0 kts 77°
2026-05-08 05:10 51.14536 -0.21055 207 ft 38 kts 77°
2026-05-08 05:11 51.14646 -0.20262 211 ft 106 kts 77°
2026-05-08 05:11 51.14842 -0.18830 213 ft 157 kts 77°
2026-05-08 05:11 51.15092 -0.17018 658 ft 167 kts 78°
2026-05-08 05:11 51.15342 -0.15215 1423 ft 168 kts 80°
2026-05-08 05:12 51.15614 -0.13321 1862 ft 186 kts 81°
2026-05-08 05:12 51.15906 -0.11177 2154 ft 210 kts 81°
2026-05-08 05:12 51.16208 -0.08807 2718 ft 224 kts 85°
2026-05-08 05:12 51.15926 -0.06407 3436 ft 225 kts 124°
2026-05-08 05:13 51.14714 -0.04742 3878 ft 245 kts 157°
2026-05-08 05:13 51.13040 -0.03955 4531 ft 256 kts 170°
2026-05-08 05:13 51.11287 -0.03511 5376 ft 261 kts 173°
2026-05-08 05:13 51.09467 -0.03113 5866 ft 266 kts 171°
2026-05-08 05:14 51.07654 -0.02549 5993 ft 265 kts 167°
2026-05-08 05:14 51.05868 -0.01836 6004 ft 265 kts 165°
2026-05-08 05:14 51.04098 -0.01041 6005 ft 265 kts 164°
2026-05-08 05:14 51.02326 -0.00206 6008 ft 266 kts 163°
2026-05-08 05:15 51.00547 0.00646 5972 ft 267 kts 163°
2026-05-08 05:15 50.98767 0.01500 5979 ft 267 kts 163°
2026-05-08 05:15 50.96986 0.02348 5984 ft 267 kts 163°
2026-05-08 05:15 50.95207 0.03192 5988 ft 267 kts 163°
2026-05-08 05:16 50.93426 0.04035 5993 ft 267 kts 163°
2026-05-08 05:16 50.91646 0.04877 6000 ft 267 kts 163°
2026-05-08 05:16 50.89863 0.05719 6004 ft 267 kts 163°
2026-05-08 05:16 50.88081 0.06561 6004 ft 267 kts 163°
2026-05-08 05:17 50.86299 0.07402 5999 ft 268 kts 164°
2026-05-08 05:17 50.84513 0.08238 5998 ft 268 kts 164°
2026-05-08 05:17 50.82727 0.09072 5999 ft 268 kts 164°
2026-05-08 05:17 50.80944 0.09908 5998 ft 267 kts 164°
2026-05-08 05:18 50.79164 0.10746 5997 ft 267 kts 164°
2026-05-08 05:18 50.77378 0.11555 5995 ft 267 kts 168°
2026-05-08 05:18 50.75537 0.11816 6004 ft 267 kts 184°
2026-05-08 05:18 50.73686 0.11286 6683 ft 271 kts 194°
2026-05-08 05:19 50.71855 0.10592 7618 ft 272 kts 194°
2026-05-08 05:19 50.70003 0.09927 8487 ft 275 kts 194°
2026-05-08 05:19 50.68126 0.09263 9343 ft 278 kts 194°
2026-05-08 05:19 50.66227 0.08589 10171 ft 281 kts 195°
2026-05-08 05:20 50.64271 0.07889 10591 ft 300 kts 194°
2026-05-08 05:20 50.62164 0.07134 10913 ft 319 kts 194°
2026-05-08 05:20 50.59975 0.06352 11565 ft 325 kts 194°
2026-05-08 05:20 50.57759 0.05557 12316 ft 329 kts 194°
2026-05-08 05:21 50.56279 0.05025 12828 ft 330 kts 194°
2026-05-08 05:21 50.54027 0.04218 13581 ft 334 kts 194°
2026-05-08 05:21 50.51753 0.03401 14255 ft 337 kts 194°
2026-05-08 05:21 50.49462 0.02576 14901 ft 339 kts 194°
2026-05-08 05:22 50.47152 0.01747 15538 ft 342 kts 194°
2026-05-08 05:22 50.44820 0.00913 16184 ft 345 kts 193°
2026-05-08 05:22 50.42469 0.00071 16828 ft 348 kts 193°
2026-05-08 05:22 50.40097 -0.00784 17446 ft 351 kts 193°
2026-05-08 05:23 50.37704 -0.01645 18063 ft 355 kts 193°
2026-05-08 05:23 50.35286 -0.02511 18623 ft 358 kts 193°
2026-05-08 05:23 50.32847 -0.03384 19154 ft 361 kts 193°
2026-05-08 05:23 50.30388 -0.04259 19687 ft 364 kts 193°
2026-05-08 05:24 50.27909 -0.05135 20219 ft 366 kts 193°
2026-05-08 05:24 50.25414 -0.06015 20753 ft 369 kts 193°
2026-05-08 05:24 50.22869 -0.06617 21243 ft 373 kts 184°
2026-05-08 05:24 50.20271 -0.06410 21750 ft 377 kts 172°
2026-05-08 05:25 50.17723 -0.05354 22227 ft 382 kts 160°
2026-05-08 05:25 50.15277 -0.03666 22699 ft 386 kts 158°
2026-05-08 05:25 50.12818 -0.01944 23173 ft 389 kts 158°
2026-05-08 05:25 50.10330 -0.00261 23627 ft 391 kts 162°
2026-05-08 05:26 50.07713 0.00923 24006 ft 392 kts 168°
2026-05-08 05:26 50.05061 0.01952 24414 ft 394 kts 168°
2026-05-08 05:26 50.02394 0.02990 24816 ft 396 kts 168°
2026-05-08 05:26 49.99722 0.04038 25217 ft 398 kts 168°
2026-05-08 05:27 49.97034 0.05100 25608 ft 399 kts 168°
2026-05-08 05:27 49.94332 0.06167 25985 ft 401 kts 168°
2026-05-08 05:27 49.91617 0.07236 26367 ft 403 kts 168°
2026-05-08 05:27 49.88928 0.08297 26744 ft 405 kts 168°
2026-05-08 05:28 49.86189 0.09372 27112 ft 407 kts 168°
2026-05-08 05:28 49.83436 0.10446 27481 ft 409 kts 168°
2026-05-08 05:28 49.80673 0.11525 27843 ft 411 kts 168°
2026-05-08 05:28 49.77892 0.12609 28204 ft 413 kts 168°
2026-05-08 05:29 49.75101 0.13693 28559 ft 415 kts 168°
2026-05-08 05:29 49.72296 0.14782 28894 ft 417 kts 168°
2026-05-08 05:29 49.69478 0.15877 29236 ft 419 kts 168°
2026-05-08 05:29 49.66646 0.16982 29567 ft 421 kts 168°
2026-05-08 05:30 49.63801 0.18119 29914 ft 423 kts 167°
2026-05-08 05:30 49.60953 0.19274 30217 ft 425 kts 167°
2026-05-08 05:30 49.58088 0.20439 30463 ft 427 kts 167°
2026-05-08 05:30 49.55206 0.21609 30702 ft 429 kts 167°
2026-05-08 05:31 49.52312 0.22783 30919 ft 432 kts 168°
2026-05-08 05:31 49.49392 0.23959 31090 ft 435 kts 168°
2026-05-08 05:31 49.46450 0.25138 31332 ft 437 kts 168°
2026-05-08 05:31 49.43510 0.26313 31654 ft 437 kts 168°
2026-05-08 05:32 49.40559 0.27488 31959 ft 437 kts 168°
2026-05-08 05:32 49.37619 0.28659 32270 ft 438 kts 168°
2026-05-08 05:32 49.34667 0.29838 32569 ft 438 kts 168°
2026-05-08 05:32 49.31714 0.31015 32873 ft 439 kts 168°
2026-05-08 05:33 49.28761 0.32203 33149 ft 440 kts 168°
2026-05-08 05:33 49.25801 0.33438 33413 ft 441 kts 168°
2026-05-08 05:33 49.22841 0.34701 33689 ft 442 kts 167°
2026-05-08 05:33 49.19881 0.35973 34004 ft 442 kts 168°
2026-05-08 05:34 49.16913 0.37242 34262 ft 443 kts 168°
2026-05-08 05:34 49.13945 0.38504 34516 ft 443 kts 168°
2026-05-08 05:34 49.10976 0.39753 34760 ft 443 kts 168°
2026-05-08 05:34 49.08001 0.40996 34956 ft 444 kts 168°
2026-05-08 05:35 49.05019 0.42237 35032 ft 443 kts 168°
2026-05-08 05:35 48.99131 0.44693 35046 ft 436 kts 168°
2026-05-08 05:36 48.93298 0.47127 35051 ft 434 kts 168°
2026-05-08 05:36 48.87471 0.49542 35048 ft 434 kts 168°
2026-05-08 05:37 48.81651 0.51953 35047 ft 434 kts 168°
2026-05-08 05:37 48.75825 0.54349 35050 ft 433 kts 169°
2026-05-08 05:38 48.69992 0.56628 35047 ft 433 kts 169°
2026-05-08 05:38 48.64156 0.58868 35024 ft 433 kts 169°
2026-05-08 05:39 48.58313 0.61140 35025 ft 434 kts 169°
2026-05-08 05:39 48.52509 0.63411 35025 ft 434 kts 169°
2026-05-08 05:40 48.46665 0.65737 35022 ft 435 kts 168°
2026-05-08 05:40 48.40819 0.68129 35013 ft 436 kts 168°
2026-05-08 05:41 48.34964 0.70530 35020 ft 436 kts 168°
2026-05-08 05:41 48.29097 0.72909 35021 ft 437 kts 168°
2026-05-08 05:42 48.23232 0.75274 35025 ft 437 kts 168°
2026-05-08 05:42 48.17350 0.77602 35007 ft 437 kts 169°
2026-05-08 05:43 48.11460 0.79894 35006 ft 438 kts 169°
2026-05-08 05:43 48.05567 0.82193 35010 ft 438 kts 169°
2026-05-08 05:44 47.99669 0.84498 34997 ft 438 kts 169°
2026-05-08 05:44 47.93774 0.86797 35006 ft 438 kts 169°
2026-05-08 05:45 47.87872 0.89104 35003 ft 438 kts 168°
2026-05-08 05:45 47.81981 0.91396 35007 ft 438 kts 169°
2026-05-08 05:46 47.76081 0.93676 34989 ft 438 kts 169°
2026-05-08 05:46 47.70179 0.95955 34991 ft 439 kts 169°
2026-05-08 05:47 47.64268 0.98236 34995 ft 439 kts 169°
2026-05-08 05:47 47.58355 1.00518 34982 ft 439 kts 169°
2026-05-08 05:48 47.52435 1.02795 34987 ft 440 kts 169°
2026-05-08 05:48 47.46512 1.05061 34992 ft 440 kts 169°
2026-05-08 05:49 47.40519 1.06381 34974 ft 433 kts 184°
2026-05-08 05:49 47.34499 1.06227 34976 ft 433 kts 184°
2026-05-08 05:50 47.28468 1.06100 34974 ft 433 kts 184°
2026-05-08 05:50 47.22438 1.05965 34970 ft 434 kts 185°
2026-05-08 05:51 47.16403 1.05820 34957 ft 434 kts 185°
2026-05-08 05:51 47.10400 1.05682 34959 ft 435 kts 185°
2026-05-08 05:52 47.04350 1.05537 34963 ft 435 kts 185°
2026-05-08 05:52 46.98295 1.05354 34967 ft 435 kts 185°
2026-05-08 05:53 46.92236 1.05077 34963 ft 436 kts 186°
2026-05-08 05:53 46.86175 1.04783 34968 ft 436 kts 185°
2026-05-08 05:54 46.80108 1.04518 34970 ft 436 kts 185°
2026-05-08 05:54 46.74028 1.04269 34975 ft 437 kts 185°
2026-05-08 05:55 46.67956 1.04016 34977 ft 437 kts 185°
2026-05-08 05:55 46.61872 1.03767 34976 ft 437 kts 185°
2026-05-08 05:56 46.55799 1.03506 34957 ft 437 kts 185°
2026-05-08 05:56 46.49711 1.03964 34957 ft 443 kts 172°
2026-05-08 05:57 46.43730 1.05967 34955 ft 445 kts 170°
2026-05-08 05:57 46.37702 1.07989 34958 ft 445 kts 171°
2026-05-08 05:58 46.31665 1.10001 34943 ft 445 kts 171°
2026-05-08 05:58 46.25620 1.12001 34949 ft 446 kts 171°
2026-05-08 05:59 46.19562 1.14004 34952 ft 446 kts 171°
2026-05-08 05:59 46.13508 1.16017 34943 ft 447 kts 171°
2026-05-08 06:00 46.07442 1.18027 34940 ft 448 kts 171°
2026-05-08 06:00 46.01365 1.20039 34962 ft 448 kts 171°
2026-05-08 06:01 45.95292 1.22038 34957 ft 447 kts 171°
2026-05-08 06:01 45.89224 1.24025 34961 ft 447 kts 171°
2026-05-08 06:02 45.83158 1.26008 34966 ft 447 kts 171°
2026-05-08 06:02 45.77086 1.27986 34963 ft 448 kts 171°
2026-05-08 06:03 45.71009 1.29964 34954 ft 448 kts 171°
2026-05-08 06:03 45.64923 1.31952 34956 ft 449 kts 171°
2026-05-08 06:04 45.58829 1.33933 34957 ft 449 kts 171°
2026-05-08 06:04 45.52731 1.35903 34940 ft 450 kts 171°
2026-05-08 06:05 45.46627 1.37877 34941 ft 450 kts 171°
2026-05-08 06:05 45.40509 1.39844 34945 ft 451 kts 171°
2026-05-08 06:06 45.34382 1.41823 34936 ft 451 kts 171°
2026-05-08 06:06 45.28245 1.43791 34944 ft 452 kts 172°
2026-05-08 06:07 45.22144 1.45739 34952 ft 453 kts 172°
2026-05-08 06:07 45.15986 1.47704 34935 ft 454 kts 172°
2026-05-08 06:08 45.09818 1.49666 34945 ft 455 kts 172°
2026-05-08 06:08 45.03634 1.51630 34950 ft 456 kts 172°
2026-05-08 06:09 44.97451 1.53607 34954 ft 456 kts 172°
2026-05-08 06:09 44.92312 1.55244 34962 ft 455 kts 172°
2026-05-08 06:10 44.86134 1.57196 34962 ft 455 kts 172°
2026-05-08 06:10 44.79958 1.59139 34965 ft 455 kts 172°
2026-05-08 06:11 44.73784 1.61076 34964 ft 455 kts 172°
2026-05-08 06:11 44.67607 1.63015 34964 ft 455 kts 172°
2026-05-08 06:12 44.61433 1.64949 34963 ft 455 kts 172°
2026-05-08 06:12 44.55257 1.66873 34949 ft 455 kts 172°
2026-05-08 06:13 44.49067 1.68809 34956 ft 456 kts 172°
2026-05-08 06:13 44.42877 1.70742 34959 ft 456 kts 172°
2026-05-08 06:14 44.36680 1.72669 34936 ft 457 kts 173°
2026-05-08 06:14 44.30469 1.74592 34948 ft 457 kts 173°
2026-05-08 06:15 44.24238 1.76257 34950 ft 455 kts 176°
2026-05-08 06:15 44.17981 1.77555 34945 ft 455 kts 178°
2026-05-08 06:16 44.11718 1.78818 34954 ft 455 kts 177°
2026-05-08 06:16 44.05456 1.80172 34964 ft 456 kts 177°
2026-05-08 06:17 43.96058 1.82267 34951 ft 455 kts 178°
2026-05-08 06:17 43.89794 1.83224 34962 ft 451 kts 183°
2026-05-08 06:18 43.83537 1.83703 34966 ft 450 kts 184°
2026-05-08 06:18 43.77280 1.84160 34957 ft 450 kts 184°
2026-05-08 06:19 43.71027 1.84739 34971 ft 451 kts 183°
2026-05-08 06:19 43.64772 1.85376 34977 ft 451 kts 183°
2026-05-08 06:20 43.58520 1.86002 34967 ft 450 kts 183°
2026-05-08 06:20 43.52327 1.86599 34982 ft 449 kts 183°
2026-05-08 06:21 43.46101 1.87191 34987 ft 448 kts 183°
2026-05-08 06:21 43.39882 1.87775 34960 ft 447 kts 184°
2026-05-08 06:22 43.33683 1.88370 34983 ft 446 kts 183°
2026-05-08 06:22 43.27500 1.88976 34991 ft 445 kts 184°
2026-05-08 06:23 43.21331 1.89564 34998 ft 444 kts 184°
2026-05-08 06:23 43.15173 1.90148 34996 ft 442 kts 184°
2026-05-08 06:24 43.09041 1.90733 34995 ft 442 kts 184°
2026-05-08 06:24 43.02912 1.91313 34995 ft 441 kts 184°
2026-05-08 06:25 42.96793 1.91895 34969 ft 440 kts 184°
2026-05-08 06:25 42.90699 1.92476 34985 ft 439 kts 184°
2026-05-08 06:26 42.84617 1.93033 34988 ft 438 kts 184°
2026-05-08 06:26 42.78547 1.93603 34988 ft 437 kts 184°
2026-05-08 06:27 42.72481 1.94178 34986 ft 436 kts 184°
2026-05-08 06:27 42.66423 1.94780 34981 ft 438 kts 182°
2026-05-08 06:28 42.60391 1.95841 34984 ft 442 kts 179°
2026-05-08 06:28 42.54283 1.97224 34982 ft 442 kts 179°
2026-05-08 06:29 42.48266 1.98547 34997 ft 440 kts 179°
2026-05-08 06:29 42.42218 1.99765 34999 ft 439 kts 180°
2026-05-08 06:30 42.36172 2.00934 34981 ft 437 kts 181°
2026-05-08 06:30 42.30150 2.01682 34999 ft 432 kts 185°
2026-05-08 06:31 42.24161 2.02118 35011 ft 431 kts 186°
2026-05-08 06:31 42.18176 2.02579 35006 ft 431 kts 185°
2026-05-08 06:32 42.12199 2.03137 34999 ft 430 kts 184°
2026-05-08 06:32 42.06229 2.03726 35005 ft 429 kts 185°
2026-05-08 06:33 42.00268 2.04298 35008 ft 429 kts 185°
2026-05-08 06:33 41.94313 2.04853 34990 ft 428 kts 184°
2026-05-08 06:34 41.88375 2.05410 35008 ft 427 kts 184°
2026-05-08 06:34 41.82452 2.05967 35004 ft 426 kts 184°
2026-05-08 06:35 41.76536 2.06519 35008 ft 426 kts 184°
2026-05-08 06:35 41.70640 2.07064 34995 ft 424 kts 184°
2026-05-08 06:36 41.64755 2.07615 35002 ft 423 kts 184°
2026-05-08 06:36 41.58881 2.08162 35006 ft 423 kts 184°
2026-05-08 06:37 41.53013 2.08716 34996 ft 422 kts 184°
2026-05-08 06:37 41.47158 2.09263 35006 ft 421 kts 184°
2026-05-08 06:38 41.41323 2.09801 35007 ft 420 kts 184°
2026-05-08 06:38 41.35494 2.10335 35004 ft 419 kts 184°
2026-05-08 06:39 41.29680 2.10891 34989 ft 419 kts 183°
2026-05-08 06:39 41.23876 2.11786 35009 ft 420 kts 180°
2026-05-08 06:40 41.18612 2.12755 35012 ft 420 kts 180°
2026-05-08 06:40 41.12916 2.13769 35009 ft 418 kts 181°
2026-05-08 06:41 41.07147 2.14740 35002 ft 417 kts 181°
2026-05-08 06:41 41.01393 2.15686 35010 ft 417 kts 181°
2026-05-08 06:42 40.95641 2.16632 34999 ft 416 kts 181°
2026-05-08 06:42 40.89898 2.17585 35002 ft 416 kts 181°
2026-05-08 06:43 40.84153 2.18544 34988 ft 416 kts 181°
2026-05-08 06:43 40.78419 2.19503 34999 ft 415 kts 181°
2026-05-08 06:44 40.72684 2.20461 34999 ft 415 kts 181°
2026-05-08 06:44 40.66952 2.21406 35000 ft 415 kts 181°
2026-05-08 06:45 40.61218 2.22351 35004 ft 415 kts 181°
2026-05-08 06:45 40.55487 2.23291 35004 ft 415 kts 181°
2026-05-08 06:46 40.49761 2.24220 35005 ft 415 kts 181°
2026-05-08 06:46 40.44028 2.25156 34981 ft 415 kts 181°
2026-05-08 06:47 40.38341 2.26235 34987 ft 418 kts 178°
2026-05-08 06:47 40.32583 2.27764 34992 ft 420 kts 176°
2026-05-08 06:48 40.26904 2.29355 34991 ft 420 kts 176°
2026-05-08 06:48 40.21181 2.30870 34963 ft 420 kts 177°
2026-05-08 06:49 40.15449 2.32337 34969 ft 420 kts 177°
2026-05-08 06:49 40.09714 2.33807 34978 ft 420 kts 177°
2026-05-08 06:50 40.03972 2.35278 34982 ft 420 kts 177°
2026-05-08 06:50 39.98235 2.36749 34971 ft 420 kts 177°
2026-05-08 06:51 39.92496 2.38227 34980 ft 420 kts 177°
2026-05-08 06:51 39.86756 2.39698 34985 ft 420 kts 177°
2026-05-08 06:52 39.81019 2.41159 34990 ft 420 kts 177°
2026-05-08 06:52 39.75283 2.42380 34973 ft 411 kts 186°
2026-05-08 06:53 39.69702 2.41839 34987 ft 400 kts 195°
2026-05-08 06:53 39.64171 2.40982 34988 ft 400 kts 194°
2026-05-08 06:54 39.59572 2.40282 34990 ft 400 kts 194°
2026-05-08 06:54 39.54279 2.38562 34431 ft 386 kts 212°
2026-05-08 06:55 39.51988 2.36844 33920 ft 376 kts 221°
2026-05-08 06:55 39.49891 2.34854 33391 ft 372 kts 221°
2026-05-08 06:55 39.47812 2.32900 32912 ft 367 kts 221°
2026-05-08 06:55 39.45749 2.30975 32422 ft 364 kts 221°
2026-05-08 06:56 39.43706 2.29079 31950 ft 360 kts 220°
2026-05-08 06:56 39.41678 2.27202 31486 ft 357 kts 220°
2026-05-08 06:56 39.39672 2.25343 31039 ft 353 kts 220°
2026-05-08 06:56 39.37683 2.23499 30573 ft 350 kts 220°
2026-05-08 06:57 39.35713 2.21671 30134 ft 347 kts 220°
2026-05-08 06:57 39.33764 2.19862 29670 ft 343 kts 220°
2026-05-08 06:57 39.31839 2.18076 29242 ft 338 kts 220°
2026-05-08 06:57 39.29944 2.16319 28844 ft 333 kts 220°
2026-05-08 06:58 39.28077 2.14588 28439 ft 328 kts 220°
2026-05-08 06:58 39.26235 2.12879 28052 ft 324 kts 220°
2026-05-08 06:58 39.24416 2.11193 27661 ft 320 kts 220°
2026-05-08 06:58 39.22616 2.09529 27265 ft 316 kts 220°
2026-05-08 06:59 39.20836 2.07884 26873 ft 313 kts 220°
2026-05-08 06:59 39.19071 2.06255 26476 ft 311 kts 220°
2026-05-08 06:59 39.17317 2.04639 26092 ft 312 kts 220°
2026-05-08 06:59 39.15476 2.02931 25671 ft 342 kts 219°
2026-05-08 07:00 39.13474 2.01066 25189 ft 364 kts 219°
2026-05-08 07:00 39.11398 1.99145 24693 ft 369 kts 219°
2026-05-08 07:00 39.09301 1.97221 24174 ft 370 kts 218°
2026-05-08 07:00 39.07209 1.95307 23670 ft 369 kts 218°
2026-05-08 07:01 39.05121 1.93395 23091 ft 367 kts 218°
2026-05-08 07:01 39.03046 1.91499 22590 ft 365 kts 218°
2026-05-08 07:01 39.00991 1.89619 22076 ft 361 kts 218°
2026-05-08 07:01 38.98988 1.87701 21559 ft 356 kts 224°
2026-05-08 07:02 38.97385 1.85332 21067 ft 349 kts 237°
2026-05-08 07:02 38.96039 1.82744 20579 ft 347 kts 237°
2026-05-08 07:02 38.94702 1.80181 20095 ft 344 kts 237°
2026-05-08 07:02 38.93373 1.77644 19619 ft 342 kts 237°
2026-05-08 07:03 38.92050 1.75117 19143 ft 339 kts 237°
2026-05-08 07:03 38.90738 1.72613 18680 ft 337 kts 237°
2026-05-08 07:03 38.89430 1.70120 18213 ft 335 kts 237°
2026-05-08 07:03 38.88130 1.67647 17711 ft 333 kts 237°
2026-05-08 07:04 38.86839 1.65190 17249 ft 332 kts 237°
2026-05-08 07:04 38.85551 1.62740 16817 ft 331 kts 237°
2026-05-08 07:04 38.84286 1.60287 16367 ft 329 kts 242°
2026-05-08 07:04 38.83424 1.57587 15944 ft 326 kts 255°
2026-05-08 07:05 38.82815 1.54797 15519 ft 325 kts 255°
2026-05-08 07:05 38.82201 1.52004 15084 ft 324 kts 254°
2026-05-08 07:05 38.81585 1.49226 14673 ft 323 kts 255°
2026-05-08 07:05 38.80971 1.46463 14257 ft 322 kts 255°
2026-05-08 07:06 38.80347 1.43715 13839 ft 321 kts 252°
2026-05-08 07:06 38.79410 1.41134 13487 ft 317 kts 244°
2026-05-08 07:06 38.78395 1.38697 13351 ft 301 kts 244°
2026-05-08 07:06 38.77459 1.36441 13201 ft 281 kts 244°
2026-05-08 07:07 38.76545 1.34226 12328 ft 286 kts 244°
2026-05-08 07:07 38.75627 1.31992 11947 ft 275 kts 244°
2026-05-08 07:07 38.74764 1.29898 11768 ft 259 kts 244°
2026-05-08 07:07 38.73926 1.27874 11517 ft 256 kts 243°
2026-05-08 07:08 38.73094 1.25873 11267 ft 253 kts 243°
2026-05-08 07:08 38.72270 1.23903 11023 ft 250 kts 243°
2026-05-08 07:08 38.71451 1.21947 10788 ft 248 kts 243°
2026-05-08 07:08 38.70637 1.20003 10545 ft 248 kts 243°
2026-05-08 07:09 38.69823 1.18056 10223 ft 248 kts 243°
2026-05-08 07:09 38.69008 1.16105 9884 ft 249 kts 243°
2026-05-08 07:09 38.68190 1.14143 9515 ft 250 kts 243°
2026-05-08 07:09 38.67375 1.12186 9195 ft 248 kts 242°
2026-05-08 07:10 38.66560 1.10239 8848 ft 247 kts 242°
2026-05-08 07:10 38.65746 1.08300 8511 ft 246 kts 243°
2026-05-08 07:10 38.64942 1.06370 8160 ft 246 kts 244°
2026-05-08 07:10 38.64406 1.04308 7822 ft 244 kts 261°
2026-05-08 07:11 38.64149 1.02169 7553 ft 243 kts 262°
2026-05-08 07:11 38.63917 1.00039 7277 ft 240 kts 269°
2026-05-08 07:11 38.64225 0.97980 7007 ft 235 kts 296°
2026-05-08 07:11 38.65185 0.96349 6841 ft 229 kts 322°
2026-05-08 07:12 38.66548 0.95297 6708 ft 230 kts 335°
2026-05-08 07:12 38.68069 0.94813 6553 ft 227 kts
2026-05-08 07:12 38.69540 0.95434 6346 ft 225 kts 37°
2026-05-08 07:12 38.70532 0.96942 6045 ft 222 kts 61°
2026-05-08 07:13 38.71273 0.98666 5763 ft 221 kts 60°
2026-05-08 07:13 38.72019 1.00391 5483 ft 222 kts 60°
2026-05-08 07:13 38.72747 1.02115 5260 ft 219 kts 61°
2026-05-08 07:13 38.73451 1.03831 5018 ft 217 kts 62°